Location: Albany
(35.0170°S, 117.8920°E)
Time: 11:28:22
(UTC+08:00)

S-56A Canister/Altair - Pass Details

Date: 29 January 2021
Orbit: 631 x 2501 km, 38.9° (Epoch: 02 March)

Event Time Altitude Azimuth Distance (km) Brightness Sun altitude
Rises 10:57:26 0° 321° (NW) 4,680 11.5 64.7°
Reaches altitude 10° 11:00:16 10° 326° (NW) 3,929 11.3 65.1°
Maximum altitude 11:10:47 53° 39° (NE) 2,515 12.2 66.8°
Drops below altitude 10° 11:24:47 10° 109° (ESE) 5,147 12.0 68.7°
Sets 11:29:04 0° 112° (ESE) 6,196 12.2 69.3°
